Regional Weather Roundup
Issued by NWS

Home | Current Version | Previous Version | Graphics & Text | Print | Product List | Glossary On
Versions: 1 2 3 4 5 6 7 8 9 10 11 12 13 14 15 16 17 18 19 20 21 22 23 24 25 26 27 28 29 30 31 32 33 34 35 36 37 38 39 40 41 42 43 44 45 46 47 48 49 50
000
ASUS43 KFSD 172210
RWRSD

WEATHER ROUNDUP FOR SOUTH DAKOTA
NATIONAL WEATHER SERVICE SIOUX FALLS SD
400 PM CST FRI NOV 17 2017

NOTE: "FAIR" INDICATES FEW OR NO CLOUDS BELOW 12,000 FEET WITH NO
SIGNIFICANT WEATHER AND/OR OBSTRUCTIONS TO VISIBILITY.


SDZ001>005-009-010-012>017-172300-
NORTHWEST AND NORTH CENTRAL SOUTH DAKOTA

CITY           SKY/WX    TMP DP  RH WIND       PRES   REMARKS
BUFFALO          N/A     44  33  65 SW7       29.58S
FAITH            N/A     40  37  89 W5        29.64F
MOBRIDGE       CLOUDY    42  29  59 N8        29.67R
$$

SDZ012>016-024>037-041>051-057-063-072>074-172300-
SOUTHWEST AND SOUTH CENTRAL SOUTH DAKOTA

CITY           SKY/WX    TMP DP  RH WIND       PRES   REMARKS
RAPID CTY ARPT CLOUDY    42  32  67 CALM      29.63S
PIERRE         CLOUDY    43  36  76 N7        29.66R
CUSTER         FLURRIES  34  32  92 VRB5      29.59F WCI  30
ELLSWORTH AFB  CLOUDY    40  40 100 NE7       29.64
PHILIP         CLOUDY    44  37  76 N8        29.65F
PINE RIDGE     CLOUDY    44  30  57 S6        29.64R
SPEARFISH      FAIR      37  37 100 CALM      29.66R
WINNER         MOCLDY    47  35  63 N7        29.63F
$$

SDZ004>011-016>023-039-040-172300-
NORTHEAST SOUTH DAKOTA

CITY           SKY/WX    TMP DP  RH WIND       PRES   REMARKS
ABERDEEN       CLOUDY    39  26  59 N12       29.68R
WATERTOWN      CLOUDY    40  33  76 N10       29.61R
BROOKINGS      PTCLDY    42  32  67 N9        29.62R
SISSETON         N/A     38  28  67 N15       29.66R
$$

SDZ017-020-022-023-036>040-048>070-172300-
SOUTHEAST SOUTH DAKOTA

CITY           SKY/WX    TMP DP  RH WIND       PRES   REMARKS
SIOUX FALLS    CLOUDY    48  37  65 N10       29.60R
HURON          CLOUDY    45  31  58 N13       29.65R
CHAMBERLAIN    CLOUDY    46  36  67 NW10      29.64F
MITCHELL       CLOUDY    47  33  58 N14       29.64R
YANKTON        LGT RAIN  48  37  65 NW14      29.59R
$$

ABBREVIATIONS USED IN REMARKS
   TC - TEMPERATURE IN CELSIUS
  WCI - WIND CHILL INDEX
   HX - HEAT INDEX
  VSB - VISIBILITY




USA.gov is the U.S. government's official web portal to all federal, state and local government web resources and services.